Location: Elbart
(49.6135°N, 11.9134°E)
Time: 13:59:48
(UTC+00:00)

Cosmos 2333 Rocket - Pass Details

Date: 09 April 2020
Orbit: 841 x 861 km, 70.8° (Epoch: 02 June)

Event Time Altitude Azimuth Distance (km) Brightness Sun altitude
Rises 23:35:26 0° 331° (NNW) 3,408 6.1 -32.2°
Reaches altitude 10° 23:37:54 10° 334° (NNW) 2,470 5.2 -32.1°
Enters shadow 23:42:32 57° 2° (N) 993 2.7 -32.0°
